METEOSAT-10 (MSG-3)

Last updated on Wed Sep 09 2026 00:02:40 GMT+0000 (Coordinated Universal Time)

1 38552U 12035B 26251.30251255 -.00000025 00000+0 00000+0 0 9999 2 38552 4.8641 60.5526 0000854 116.8762 278.9415 1.00269494 51692
UTC large
Height (km)
Speed (km/s)
/
Latitude / Longitude
Inclination (degrees)
Orbital Period (minutes)
Azimuth
Elevation
Range (km)
Doppler Factor

Next 0 passes for location: London (51.5072 / 0.1276)

No passes found over London.
METEOSAT-10 (MSG-3)